User: anonymous   Login
Location: Newark
(56.0692°N, 115.8617°E)
Time: 06:40:33
(UTC+00:00)
Language:

AIST 2D - Orbit

View from above orbital plane
View from above orbital plane
View from above satellite
View from above satellite

Ground track
Ground track

The orbit data is extracted from the following two-line orbital elements,

1 41465U 16026B   21298.70297686  .00003513  00000-0  98865-4 0  9994
2 41465  97.0858 178.2603 0008734 265.0511 180.4423 15.37083929307434
Epoch (UTC): 25 October 2021 16:52:17
Eccentricity: 0.0008734
inclination: 97.0858°
perigee height: 449 km
apogee height: 461 km
right ascension of ascending node: 178.2603°
argument of perigee: 265.0511°
revolutions per day: 15.37083929
mean anomaly at epoch: 180.4423°
orbit number at epoch: 30743

The dashed part of the orbit path shows where the satellite is in the earth's shadow,  

DLR